Content
SEND FEEDBACK

Daily
Averages
Monthly
Summary
Brazil

RIO DE JANEIRO, RIO DE JANEIRO


Home > South America > Brazil > Rio De Janeiro
Elevation: 20 feet     Latitude: 22 49S     Longitude: 043 15W

WEATHER
 
SELECT A DAY
Number of Records: 192,742;   Date Range: 6/30/96 - 7/20/14
 
SHARE

PRINT THIS DATA

[ ← Previous Day ]
WEATHER ALMANAC - MAY 3, 2013
[ Next Day → ]
[ °C ]   °F
Weather ElementAverageHighLow
Temperature76.7 °F87.8 °F (3:00 pm)69.8 °F (3:00 am)
Dewpoint67.3 °F69.8 °F (8:00 am)60.8 °F (3:00 pm)
Humidity73.4 %94 % (3:00 am)32 % (3:00 pm)
Barometer29.96 in30.04 in (1:00 am)29.86 in (4:00 pm)
Wind Speed5.1 mph10.4 mph (4:00 pm)
Weather ElementAverage
Visibility5.3 mi
Wind DirectionESE (121.1 °)

Weather ElementTotal
Precipitation---
Cooling Degree Days13.8 (Base 65)
Growing Degree Days28.8 (Base 50)
Averaged from 28 records on May 3, 2013
WEATHER CONDITIONS BREAKOUT
WIND DIRECTION BREAKOUT
WEATHER BY HOUR - MAY 3, 2013
[ °C ]   °F
Local TimeTemperatureDewpointHumidityBarometerVisibilityWind DirectionWind SpeedGust SpeedPrecipitationEventsConditions
1:00 AM71.6 °F68.0 °F88 %30.04 in6.2 miNE (40°)5.8 mphMostly Cloudy
2:00 AM71.6 °F68.0 °F88 %30.01 in5.0 miENE (60°)5.8 mphMostly Cloudy
3:00 AM69.8 °F68.0 °F94 %30.01 in4.3 miENE (60°)5.8 mphMostly Cloudy
4:00 AM69.8 °F66.2 °F88 %30.01 in4.3 miNorth (10°)3.5 mphMostly Cloudy
5:00 AM71.6 °F68.0 °F88 %29.98 in3.7 miNNE (30°)3.5 mphMostly Cloudy
6:00 AM70.0 °F68.0 °F91 %29.99 in4.0 miEast (80°)2.3 mphMist
6:00 AM69.8 °F68.0 °F94 %29.98 in3.7 miEast (80°)2.3 mphMostly Cloudy
7:00 AM71.6 °F68.0 °F88 %29.98 in3.1 miNorth (350°)3.5 mphMostly Cloudy
8:00 AM73.4 °F69.8 °F88 %30.01 in3.7 miCalmMostly Cloudy
9:00 AM74.0 °F69.0 °F81 %30.01 in4.0 miNNW (340°)5.8 mphMist
9:00 AM75.2 °F69.8 °F83 %30.01 in3.7 miNNW (340°)5.8 mphMostly Cloudy
10:00 AM77.0 °F68.0 °F74 %29.98 in5.6 miNNE (20°)5.8 mphScattered Clouds
11:00 AM78.8 °F68.0 °F69 %29.98 in6.2 miNorth (360°)6.9 mphPartly Cloudy
12:00 PM82.4 °F64.4 °F54 %29.95 inNorth (360°)4.6 mphClear
12:00 PM82.0 °F64.0 °F45 %29.96 in8.0 miNorth4.6 mphHaze
1:00 PM84.2 °F62.6 °F48 %29.92 inENE (70°)5.8 mphClear
2:00 PM86.0 °F66.2 °F51 %29.89 inNNE (30°)5.8 mphClear
3:00 PM87.0 °F62.0 °F32 %29.89 in8.0 miENE (70°)6.9 mphHaze
3:00 PM87.8 °F60.8 °F40 %29.89 inENE (70°)6.9 mphClear
4:00 PM84.2 °F68.0 °F58 %29.86 inESE (120°)10.4 mphClear
5:00 PM80.6 °F68.0 °F65 %29.89 inSE (140°)6.9 mphClear
6:00 PM78.8 °F68.0 °F69 %29.89 inSE (130°)8.1 mphClear
7:00 PM77.0 °F69.8 °F78 %29.89 inSE (140°)4.6 mphClear
8:00 PM77.0 °F69.8 °F78 %29.92 inESE (120°)4.6 mphClear
9:00 PM75.0 °F67.0 °F70 %29.95 in12.0 miEast (100°)3.5 mph
9:00 PM75.2 °F68.0 °F78 %29.95 inEast (100°)3.5 mphClear
10:00 PM73.4 °F69.8 °F88 %29.95 inENE (70°)4.6 mphClear
11:00 PM73.4 °F69.8 °F88 %29.95 inEast (100°)4.6 mphClear
Hourly data recorded from SBGL, located miles away from Rio De Janeiro, Rio De Janeiro







STORIES FROM OUR PARTNERS